Location: Audinghen
(50.8518°N, 1.6129°E)
Time: 06:16:07
(UTC+00:00)

Cosmos 1300 Rocket - Pass Details

Date: 07 August 2020
Orbit: 603 x 625 km, 82.5° (Epoch: 23 September)

Event Time Altitude Azimuth Distance (km) Brightness Sun altitude
Exits shadow 00:57:54 55° 144° (SE) 732 3.6 -21.6°
Maximum altitude 00:58:35 65° 97° (E) 669 3.7 -21.6°
Drops below altitude 10° 01:02:53 10° 16° (NNE) 1,962 7.3 -21.4°
Sets 01:05:07 0° 13° (NNE) 2,871 8.5 -21.3°
